Regional Weather Roundup
Issued by NWS

Home | Current Version | Previous Version | Text Only | Print | Product List | Glossary Off
Versions: 1 2 3 4 5 6 7 8 9 10 11 12 13 14 15 16 17 18 19 20 21 22 23 24 25 26 27 28 29 30 31 32 33 34 35 36 37 38 39 40 41 42 43 44 45 46 47 48 49 50

622
ASUS43 KDMX 250803
RWRIA

WEATHER ROUNDUP FOR IOWA
NATIONAL WEATHER SERVICE DES MOINES IA
300 AM CDT SUN SEP 25 2016

NOTE: "FAIR" INDICATES FEW OR NO CLOUDS BELOW 12,000 FEET WITH NO
SIGNIFICANT WEATHER AND/OR OBSTRUCTIONS TO VISIBILITY.

* - THESE STATIONS ARE NOT NWS STATIONS...THUS NOT UNDER NWS
QUALITY CONTROL.  THEY ALSO DO NOT REPORT WEATHER SUCH
AS PRECIPITATION OR FOG.

IAZ001>003-012>014-020>022-031>034-043>046-250900-
   NORTHWEST IOWA

CITY           SKY/WX    TMP DP  RH WIND       PRES   REMARKS
CARROLL *      CLOUDY    68  68 100 SW7       29.97R
CHEROKEE *     RAIN      65  65 100 CALM      29.95F
DENISON *      LGT RAIN  68  68 100 S8        29.94S
LE MARS *      MOCLDY    64  55  72 NW13G23   29.98R
ORANGE CITY *  MOCLDY    66  64  94 SW14G21   29.96R
SHELDON *      CLOUDY    64  64 100 S5        29.93R
SIOUX CITY     CLOUDY    68  65  90 NW17      29.96R
SPENCER        LGT RAIN  64  63  96 W12       29.95R FOG
STORM LAKE *   LGT RAIN  66  66 100 S6        29.96F
$$

IAZ055>058-069>071-079>083-090>094-250900-
   SOUTHWEST IOWA

CITY           SKY/WX    TMP DP  RH WIND       PRES   REMARKS
ATLANTIC *     CLOUDY    68  68 100 S8        29.98S
AUDUBON *      LGT RAIN  68  64  88 S5        29.99R
CLARINDA *       N/A     68  68 100 MISG      30.02R
COUNCIL BLFS * CLOUDY    68  68 100 S6        29.98S
CRESTON *      CLOUDY    66  66 100 S12       30.02R
HARLAN  *      CLOUDY    68  68 100 S8        30.01R
LAMONI         LGT RAIN  68  67  96 SE5       30.00F
RED OAK *      CLOUDY    68  68 100 S7        29.99S
SHENANDOAH *   CLOUDY    68  68 100 S13       30.00S
$$

IAZ047>049-059>061-072>074-084-250900-
   CENTRAL IOWA

CITY           SKY/WX    TMP DP  RH WIND       PRES   REMARKS
AMES           LGT RAIN  68  68 100 S8        29.99S
ANKENY *         N/A    N/A N/A N/A MISG        N/A
BOONE *          N/A     68  68 100 SE7       29.98R
CHARITON *       N/A     68  68 100 CALM      30.00F FOG
DES MOINES     LGT RAIN  70  68  93 S9        29.97R
GRINNELL*      CLOUDY    68  66  94 CALM      30.02S
KNOXVILLE *    CLOUDY    70  68  94 S5G14     30.00F
MARSHALLTOWN   LGT RAIN  69  69 100 SE10      29.99S
NEWTON *       CLOUDY    68  68 100 SE6       30.00F FOG
PELLA *        CLOUDY    68  67  96 CALM      30.01F
PERRY *        LGT RAIN  69  69 100 SE5       29.96F
$$

IAZ004>006-015-016-023>025-035-036-250900-
   NORTH CENTRAL IOWA

CITY           SKY/WX    TMP DP  RH WIND       PRES   REMARKS
ALGONA *       CLOUDY    66  66 100 S10       29.96F
CLARION *      CLOUDY    68  68 100 SE7       29.97S
ESTHERVILLE    CLOUDY    66  66 100 S10       29.94F
FORT DODGE *   CLOUDY    66  64  94 S5        29.97F
MASON CITY     LGT RAIN  67  66  97 SE7       29.99F
FOREST CITY *  DRIZZLE   64  64 100 SE6       29.97F
WEBSTER CITY * CLOUDY    68  68 100 S7        29.96F
IOWA FALLS *     N/A     68  67  96 SE3       29.99F
$$

IAZ007>011-017>019-026>030-037>042-050>054-066-250900-
   NORTHEAST IOWA

CITY           SKY/WX    TMP DP  RH WIND       PRES   REMARKS
CEDAR RAPIDS   CLOUDY    69  69 100 SW6       30.01S
CHARLES CITY * MOCLDY    68  68 100 SE9       30.00R FOG
CLINTON *      CLOUDY    66  64  93 SE10      30.04F
DECORAH *      CLOUDY    64  64 100 SE7       30.01F FOG
DUBUQUE        CLOUDY    65  63  93 SE16      30.03F
MONTICELLO *   PTCLDY    68  64  88 SE9G16    30.02S
OELWEIN *      CLOUDY    68  66  94 SE8       30.02F FOG
WATERLOO       LGT RAIN  70  67  90 SE16      29.98S FOG
$$

IAZ064-065-067-068-078-250900-
   EAST CENTRAL IOWA

CITY           SKY/WX    TMP DP  RH WIND       PRES   REMARKS
DAVENPORT      CLOUDY    67  65  93 SE7       30.03F
IOWA CITY      CLOUDY    70  67  90 E6        30.02F
MUSCATINE *    CLOUDY    66  64  94 CALM      30.02F
QUAD CITIES    CLOUDY    67  64  90 E7        30.03F FOG
$$

IAZ062-063-075>077-085>089-095>099-250900-
   SOUTHEAST IOWA

CITY           SKY/WX    TMP DP  RH WIND       PRES   REMARKS
BURLINGTON     PTCLDY    68  67  96 S6        30.02S
FAIRFIELD *    MOCLDY    73  64  73 S7        30.00S
FORT MADISON * CLEAR     72  66  83 S7        30.02F
KEOKUK *       CLEAR     72  66  83 SE5       30.01F
OSKALOOSA *    MOCLDY    68  67  97 CALM      30.02S
CENTERVILLE *    N/A     70  68  94 CALM      30.03S
OTTUMWA        CLOUDY    71  66  84 N6        30.01S
WASHINGTON *     N/A    N/A N/A N/A MISG        N/A
$$

ABBREVIATIONS USED IN REMARKS
   TC - TEMPERATURES IN CELSIUS
  WCI - WIND CHILL INDEX
   HX - HEAT INDEX
  VSB - VISIBILITY
$$





USA.gov is the U.S. government's official web portal to all federal, state and local government web resources and services.